Theta_e
318 317 316 316 315 315 314 311 309 303 303 299 296 292 293 291 290 289 289 290 293 294 295 295 296 296 297 297 298 298 299 299 300 300 301 301 302 302
314 314 312 309 308 308 311 311 311 308 302 300 295 292 289 289 288 287 287 287 290 291 292 293 294 294 295 296 296 297 298 299 299 299 300 300 301 301
305 304 303 303 302 301 302 302 301 303 302 294 292 292 287 285 285 285 285 284 284 289 290 292 292 293 294 294 294 295 296 297 298 298 298 299 300 301
300 300 298 299 298 299 298 296 296 296 299 292 288 286 284 283 282 281 283 284 283 286 289 290 291 291 292 292 292 294 294 295 295 297 298 299 300 302
295 295 295 296 294 294 293 291 290 289 289 288 282 282 282 281 280 280 281 280 282 284 286 287 288 289 291 291 292 293 293 294 295 296 297 299 300 300
291 291 291 292 291 290 289 287 287 285 284 283 282 281 279 280 279 277 277 277 278 281 282 283 285 286 288 289 291 291 293 294 295 296 297 298 298 297
288 288 288 287 288 288 287 285 284 283 282 282 280 279 277 278 278 278 276 272 271 278 277 277 278 279 283 285 289 291 293 293 294 296 296 297 298 296
286 286 286 287 288 289 288 288 285 282 281 280 279 278 279 279 278 275 273 268 269 275 276 274 277 278 280 283 290 291 292 293 294 296 297 297 297 296
285 285 283 283 283 283 286 286 285 287 285 281 279 279 279 279 278 273 273 274 273 274 276 271 273 275 279 282 289 290 291 292 294 295 296 297 297 297
283 282 282 281 282 282 282 281 281 282 282 282 281 281 281 280 279 279 277 270 268 271 276 268 271 270 274 280 287 288 289 291 293 294 295 296 296 296
282 282 282 282 285 284 282 281 281 282 285 285 285 284 284 283 282 277 270 266 265 268 274 273 269 269 269 273 282 286 287 289 292 293 294 295 295 296
283 283 284 283 285 284 280 280 278 279 280 280 280 280 280 280 281 279 276 266 263 267 272 270 271 272 271 271 277 281 282 286 289 292 292 293 295 293
281 281 282 286 285 285 283 279 278 280 280 279 278 279 277 275 274 275 276 274 264 266 274 273 270 267 265 268 270 278 280 281 283 286 290 292 293 292
280 281 282 286 285 285 281 284 282 280 279 278 277 276 268 267 267 268 270 270 271 270 270 270 268 268 263 264 272 273 277 281 281 284 285 288 290 291
278 283 285 284 284 284 284 283 280 279 278 276 275 274 266 264 263 263 263 263 263 263 266 266 267 264 265 268 270 272 273 277 279 281 283 284 284 285
282 282 281 279 280 281 280 279 278 278 277 274 271 263 262 261 260 259 261 259 261 263 265 266 266 264 262 262 264 267 272 274 275 276 282 282 283 285
269 272 272 265 269 274 275 277 278 277 275 264 261 261 261 261 260 256 257 256 259 259 262 262 263 260 272 263 265 265 264 273 273 272 277 278 280 282
266 269 267 259 263 270 272 274 276 276 276 263 260 261 262 261 260 259 259 257 258 256 257 257 257 263 264 269 276 265 262 260 265 269 270 273 276 280
265 258 262 262 263 263 265 272 272 274 268 267 263 262 260 259 261 260 260 258 258 256 257 255 256 259 259 261 264 277 263 262 262 266 264 268 273 276
277 264 266 265 265 265 263 264 261 266 273 271 263 264 264 262 262 263 259 259 258 258 260 257 257 257 265 268 263 269 277 264 262 260 261 261 265 276
279 277 272 267 266 266 266 267 268 269 271 274 270 265 264 263 261 261 262 260 260 258 262 262 261 263 259 258 263 262 263 273 276 271 260 259 260 262
276 278 270 269 269 268 268 268 268 266 265 267 267 265 265 265 265 264 263 263 263 262 262 262 262 261 260 262 259 258 259 261 267 274 278 273 264 263
275 273 272 269 269 269 269 269 269 269 268 269 268 268 267 267 266 266 265 262 263 261 261 263 262 261 258 257 258 257 257 258 257 261 264 275 280 278
Wind_Speed
7 9 6 5 5 5 5 3 3 3 3 3 3 5 3 5 9 6 6 13 15 17 17 17 18 18 18 18 19 21 22 24 25 26 27 27 28 29
0 2 3 2 4 2 1 1 1 1 3 2 3 3 6 6 7 6 7 9 14 18 17 18 17 17 18 19 20 22 24 26 27 28 29 29 30 30
4 5 6 4 4 5 3 4 3 2 2 3 3 4 5 4 5 5 5 6 6 19 18 17 17 18 18 20 22 25 26 26 26 29 31 31 33 32
5 5 7 5 5 4 5 5 3 3 2 4 2 3 5 4 4 4 4 4 6 16 17 19 18 19 20 21 22 25 26 27 29 31 33 33 33 31
8 7 6 6 4 4 4 5 4 4 3 4 3 3 3 4 3 3 3 4 5 15 16 16 18 19 20 20 22 24 26 28 32 34 33 31 27 26
8 7 7 5 5 5 5 4 5 6 5 6 4 3 3 2 3 2 3 3 4 7 8 11 14 16 18 19 23 25 26 30 34 33 32 30 23 22
10 10 9 11 14 10 4 4 5 6 5 5 3 2 3 3 4 3 2 2 2 7 5 4 6 5 7 13 18 26 30 32 33 34 33 27 18 17
10 8 8 11 16 19 19 16 9 4 4 3 1 4 5 2 2 2 3 4 3 5 6 4 4 4 8 9 27 28 31 32 34 36 32 30 18 16
8 7 7 5 7 9 17 17 16 20 14 4 7 3 3 4 3 3 1 2 0 3 5 4 4 5 7 9 27 29 31 32 33 36 34 36 27 30
6 6 7 5 5 7 8 11 9 8 8 7 8 7 5 4 2 1 1 0 2 2 6 3 4 3 6 7 25 29 29 31 31 35 35 34 33 36
5 5 6 7 9 10 8 11 11 10 12 15 13 10 11 11 9 2 4 4 3 3 6 2 3 4 3 5 10 27 27 30 30 32 35 30 28 30
5 5 8 6 8 9 6 8 10 7 5 5 5 6 7 9 12 6 3 3 1 4 4 4 4 4 5 3 6 11 12 28 27 29 32 33 25 13
4 4 3 8 8 9 9 5 5 8 7 5 4 4 3 5 4 5 6 3 2 1 4 2 3 2 2 4 4 5 10 12 11 14 24 29 30 22
6 4 4 10 10 9 6 13 12 8 4 4 4 3 2 3 3 3 5 5 5 3 4 3 3 3 1 3 4 6 5 10 10 10 11 17 22 24
3 7 10 10 11 9 11 11 7 5 5 4 4 2 1 0 1 2 3 3 3 3 4 4 3 1 3 3 1 4 6 6 9 8 9 10 10 8
9 6 6 6 7 7 6 6 4 4 4 3 3 0 1 2 2 1 2 2 3 4 5 5 6 3 2 3 2 4 6 5 7 6 7 9 10 10
6 4 2 2 2 4 4 4 4 4 3 3 2 2 1 1 2 2 2 2 3 0 3 4 5 3 6 4 4 3 3 4 6 5 6 9 10 10
3 3 4 3 4 6 5 4 5 7 5 3 3 3 3 3 2 1 2 2 3 1 1 2 3 4 5 6 13 3 3 2 4 6 4 6 9 9
3 3 4 4 4 5 4 6 5 6 4 4 3 3 4 3 3 2 2 2 1 1 2 1 1 3 3 1 4 11 2 3 3 4 4 4 2 5
7 5 6 6 6 6 6 5 3 2 5 4 3 4 4 3 2 3 3 3 2 1 1 2 2 2 4 5 4 1 10 1 2 1 3 3 3 6
10 9 8 6 6 6 6 6 6 5 5 7 5 4 4 3 3 3 3 4 4 2 2 2 2 2 1 2 4 2 4 8 6 1 1 3 1 3
7 8 6 7 7 6 6 6 6 5 4 5 4 4 4 4 4 4 5 4 4 3 2 1 1 1 2 3 2 1 3 4 4 6 9 5 4 2
10 10 8 7 7 7 7 8 8 8 8 7 7 6 6 6 4 4 4 3 4 3 2 2 1 2 2 2 3 1 2 3 3 4 4 11 9 1
Wind_Direction
224 233 212 220 213 218 202 174 178 178 177 77 120 32 33 51 29 30 28 26 24 18 16 11 8 6 8 4 358 355 350 344 337 331 326 322 317 312
123 164 96 44 58 38 89 153 181 188 141 53 69 106 38 43 31 28 30 19 24 21 18 14 16 13 10 4 5 359 354 344 337 332 326 321 315 309
73 88 84 99 97 73 45 65 45 24 111 85 70 38 49 22 28 26 19 16 1 18 22 19 19 17 12 12 6 357 350 344 336 332 329 323 317 311
68 71 89 65 35 84 112 89 80 31 96 117 80 46 64 12 34 39 16 9 5 13 19 17 13 15 10 9 2 356 353 348 342 337 329 321 317 315
57 59 56 79 72 50 65 90 83 63 48 105 110 27 66 40 345 5 359 0 13 10 9 7 8 11 12 8 360 356 352 347 347 340 334 333 333 333
63 56 53 58 76 85 69 64 83 83 81 87 81 71 30 14 50 12 343 348 2 5 351 2 358 0 4 356 356 0 357 354 349 347 346 344 344 351
73 67 64 71 66 61 78 61 79 90 72 74 71 94 32 27 21 337 307 317 316 13 337 322 343 328 353 354 359 4 3 358 356 354 348 345 349 2
93 79 66 72 74 76 73 64 66 97 111 97 97 78 65 35 358 358 328 22 351 15 351 313 338 313 355 0 6 8 7 4 3 6 13 16 8 2
89 93 83 60 70 79 77 74 65 66 71 84 97 85 77 12 336 355 339 351 323 334 2 308 333 320 343 355 9 11 10 10 11 14 13 19 43 28
86 97 100 92 89 96 95 77 68 65 67 71 77 76 66 48 21 1 13 183 343 330 2 2 332 315 328 345 9 13 9 12 17 20 22 32 49 52
75 81 103 107 119 115 103 105 96 81 76 79 76 72 55 38 36 25 32 62 354 319 6 351 328 307 327 318 2 8 7 10 20 27 27 30 40 52
81 91 103 113 117 115 111 118 109 109 89 83 75 51 47 33 36 29 7 81 61 12 355 22 341 353 345 327 340 5 358 4 9 26 31 32 36 51
101 94 79 126 129 117 106 109 128 136 121 110 100 84 46 42 26 24 26 57 110 60 336 18 341 2 62 312 311 352 359 360 3 11 21 29 35 41
139 132 122 123 123 123 130 123 127 122 126 126 113 92 40 14 8 31 38 54 44 100 326 13 83 11 70 359 352 325 340 15 3 14 18 24 26 36
127 144 138 136 133 130 134 139 139 149 148 149 145 128 146 269 331 26 8 14 56 38 20 19 85 30 37 76 338 327 352 350 4 5 28 33 29 23
144 128 122 130 139 144 142 155 168 164 164 161 149 123 341 33 62 23 94 12 55 339 350 26 27 90 43 60 43 344 351 24 342 354 18 46 37 35
106 86 103 74 139 156 173 181 175 168 174 141 124 133 96 64 22 4 64 47 97 187 317 329 345 33 57 121 48 26 335 3 357 345 21 52 40 31
73 161 186 193 180 174 183 188 196 197 195 145 142 140 138 132 128 38 92 98 123 232 250 296 340 9 5 15 54 355 10 358 332 353 6 60 45 24
178 188 186 187 199 195 191 195 200 200 164 159 153 158 142 143 143 139 125 111 94 157 258 235 80 106 74 98 296 36 81 339 339 17 14 28 63 22
206 201 210 198 200 202 197 202 206 191 196 183 160 170 174 148 148 168 176 150 159 150 3 10 89 163 152 184 161 244 14 96 81 24 339 320 262 19
220 221 217 201 200 197 195 193 188 198 195 197 185 170 171 154 178 183 156 155 136 150 164 196 219 268 125 18 40 330 304 10 32 116 175 76 12 355
220 221 203 209 205 196 194 196 197 195 194 197 189 173 177 180 180 174 179 164 186 171 170 103 79 72 60 107 207 251 307 325 349 3 32 157 157 131
217 216 209 198 196 193 192 193 199 200 197 191 186 183 175 194 195 181 176 170 146 150 157 132 92 60 86 107 137 184 324 329 360 3 331 3 25 211